sat.trackr.live / text

‹ back to catalog

GSAT-7

NORAD 39234 · 2013-044B

PAYLOAD ACTIVE UNKNOWN

§ Identity

Operator
Country
IND
Launch date
2013-08-29
Launch site
FRGUI
Launch vehicle
Mass (kg)
RCS (m²)
14.29

Purposes: comms

External: N2YO · Heavens-Above · Gunter

§ Orbital elements

Epoch: 2026-09-20T01:52:37.579872Z

Period
1,436.09 min
Inclination
0.3181°
Eccentricity
0.0005202
Mean motion
1.00272498 rev/d
Perigee alt
35,764.5 km
Apogee alt
35,808.3 km
Semi-major
42,164.5 km
B*
0.0000e+0
RAAN
86.7347°
Arg perigee
165.0868°
Mean anomaly
209.3346°
Rev number
4,621

§ Raw data

GSAT-71 39234U 13044B   26263.07821273 -.00000082  00000+0  00000+0 0  99912 39234   0.3181  86.7347 0005202 165.0868 209.3346  1.00272498 46217

JSON: /api/v1/satellites/39234 · /tle

For live sub-satellite position, see the globe view (requires WebGL).

§ Visibility from observer

Set your observer location to see the next 7 days of passes ≥ 10°. The values pass through the URL so the page stays shareable.

No JS? Fill the form by hand. The geolocation button needs JavaScript.